Regional Weather Roundup
Issued by NWS

Home | Current Version | Previous Version | Graphics & Text | Print | Product List | Glossary On
Versions: 1 2 3 4 5 6 7 8 9 10 11 12 13 14 15 16 17 18 19 20 21 22 23 24 25 26 27 28 29 30 31 32 33 34 35 36 37 38 39 40 41 42 43 44 45 46 47 48 49 50
000
ASUS45 KCYS 101210
RWRWY

WYOMING REGIONAL WEATHER ROUNDUP
NATIONAL WEATHER SERVICE CHEYENNE WY
600 AM MDT THU JUL 10 2014

NOTE:  "FAIR" INDICATES FEW OR NO CLOUDS BELOW 12,000 FEET
WITH NO SIGNIFICANT WEATHER AND/OR OBSTRUCTIONS TO VISIBILITY.

WYZ001-101300-
YELLOWSTONE NATIONAL PARK

CITY           SKY/WX    TMP DP  RH WIND       PRES   REMARKS
LK YELLOWSTONE   N/A     53  47  79 CALM      30.22S
6HR MIN TEMP:  53; 6HR MAX TEMP:  59;

W YELLOWSTONE  NOT AVBL

$$
WYZ002>013-054>058-071-098>099-101300-
NORTHERN WYOMING

CITY           SKY/WX    TMP DP  RH WIND       PRES   REMARKS
JACKSON        MOCLDY    64  48  55 CALM      30.11S
CODY           NOT AVBL
GREYBULL       MOCLDY    70  53  54 W6        29.88R
6HR MIN TEMP:  68; 6HR MAX TEMP:  76; 6HR PCP: TRACE;

WORLAND        MOCLDY    66  49  54 SE9       29.91R
6HR MIN TEMP:  65; 6HR MAX TEMP:  75;

SHERIDAN       MOCLDY    63  53  70 SW6       29.91R
6HR MIN TEMP:  61; 6HR MAX TEMP:  72;

BUFFALO        PTCLDY    60  54  80 NW7       29.98R
6HR MIN TEMP:  60; 6HR MAX TEMP:  73; 6HR PCP:  0.20;

GILLETTE       MOCLDY    63  58  83 S10       29.93R
6HR MIN TEMP:  63; 6HR MAX TEMP:  71; 6HR PCP: TRACE;

HULETT         FAIR      63  57  82 MISG      29.89
NEWCASTLE      FAIR      64  54  68 NW3       29.91

$$
WYZ014>020-022>026-101>103-101300-
CENTRAL WYOMING

CITY           SKY/WX    TMP DP  RH WIND       PRES   REMARKS
BIG PINEY      PTCLDY    56  43  61 NE5       30.17R
6HR MIN TEMP:  54; 6HR MAX TEMP:  68;

PINEDALE       MOSUNNY   54  48  82 CALM      30.19R
DUBOIS         FAIR      57  41  54 W7        30.15R
LANDER         MOCLDY    73  43  33 CALM      29.99R
6HR MIN TEMP:  67; 6HR MAX TEMP:  79;

RIVERTON       MOCLDY    72  44  36 W3        30.00S
6HR MIN TEMP:  65; 6HR MAX TEMP:  78;

CASPER         PTCLDY    58  53  84 S8        30.00R
6HR MIN TEMP:  58; 6HR MAX TEMP:  77;

DOUGLAS        CLOUDY    59  57  93 E5        29.99R FOG
6HR MIN TEMP:  58; 6HR MAX TEMP:  69;


$$
WYZ021-027>030-104>119-101300-
SOUTHERN WYOMING

CITY           SKY/WX    TMP DP  RH WIND       PRES   REMARKS
EVANSTON       CLOUDY    61  48  62 SW9       30.20R
6HR MIN TEMP:  60; 6HR MAX TEMP:  64;

KEMMERER       PTSUNNY   57  48  72 CALM      30.21R
FORT BRIDGER   PTSUNNY   62  49  62 W7        30.21R
ROCK SPRINGS   MOCLDY    67  44  43 SW13      30.15R
6HR MIN TEMP:  64; 6HR MAX TEMP:  72; 6HR PCP: TRACE;

DIXON          FAIR      56  43  60 E6        30.20S
RAWLINS        PTCLDY    67  43  41 SW14      30.15R
6HR MIN TEMP:  67; 6HR MAX TEMP:  71;

SARATOGA       FAIR      68  43  40 S9G20     30.18S
LARAMIE        CLEAR     59  40  49 SW8       30.17R
6HR MIN TEMP:  54; 6HR MAX TEMP:  71;

CHEYENNE       CLEAR     58  44  60 SW12      30.07R
6HR MIN TEMP:  57; 6HR MAX TEMP:  66;

TORRINGTON     PTCLDY    57  56  96 NE9       29.95R
6HR MIN TEMP:  54; 6HR MAX TEMP:  66;


$$



USA.gov is the U.S. government's official web portal to all federal, state and local government web resources and services.